SCP
0 0 0 -0 0 0 0 0 -0 -0 -0 -0 -0 -0 -0 -0 -0 -0 0 -0 -0 -0 -0 -0 -0 -0 -0 -0 -0 0 0 0 0 0 0 0 0 0 0 0 0 0 0 0 -0 -0 -0 -0 -0
0 0 0 -0 0 0 0 0 0 -0 -0 -0 0 -0 -0 -0 -0 0 -0 -0 -0 -0 -0 -0 -0 -0 -0 -0 -0 -0 -0 0 0 0 0 0 0 0 0 0 0 0 -0 -0 -0 0 -0 0 -0
0 0 0 0 -0 0 0 0 -0 -0 0 -0 -0 -0 -0 -0 0 0 0 -0 -0 -0 -0 -0 -0 -0 -0 -0 -0 -0 -0 -0 0 -0 -0 0 0 0 -0 0 0 -0 -0 -0 -0 -0 -0 -0 -0
0 0 0 0 0 0 0 0 -0 -0 -0 -0 0 -0 -0 -0 0 0 -0 -0 -0 -0 -0 -0 -0 -0 -0 -0 -0 -0 -0 -0 -0 -0 -0 -0 -0 -0 -0 -0 -0 -0 -0 -0 -0 -0 -0 -0 -0
0 0 0 0 0 0 0 0 0 -0 -0 -0 -0 -0 -0 -0 0 -0 -0 -0 -0 -0 0 -0 -0 -0 -0 -0 -0 -0 -0 -0 -0 -0 -0 -0 -0 -0 -0 -0 -0 -0 -0 -0 -0 -0 -0 -0 -0
0 0 0 0 0 0 0 0 0 0 -0 -0 -0 -0 -0 0 0 -0 -0 -0 -0 -0 0 0 0 0 0 -0 -0 -0 -0 -0 -0 -0 -0 -0 -0 -0 -0 -0 -0 -0 -0 -0 -0 -0 -0 -0 0
0 0 0 0 0 0 0 0 0 0 0 -0 0 -0 -0 0 0 -0 -0 -0 -0 -0 -0 0 0 0 0 0 0 0 0 -0 -0 -0 -0 0 0 0 -0 0 0 0 -0 0 0 0 -0 -0 -0
0 0 0 0 0 0 0 0 0 0 0 0 0 0 0 0 -0 -0 -0 -0 -0 -0 -0 -0 0 0 0 0 0 0 0 0 0 0 0 0 0 0 0 -0 -0 -0 -0 -0 -0 -0 -0 -0 -0
0 0 0 0 0 0 0 0 0 0 0 0 0 0 0 -0 -0 -0 -0 -0 -0 0 -0 -0 -0 0 0 0 0 0 -0 -0 0 0 0 0 0 0 0 0 -0 -0 -0 -0 -0 -0 -0 -0 -0
0 0 0 0 0 0 0 0 0 0 0 0 0 0 0 -0 -0 -0 -0 -0 -0 -0 0 0 0 0 0 0 0 0 0 0 0 0 0 0 0 0 -0 -0 -0 -0 -0 -0 -0 -0 -0 -0 -0
0 0 0 0 0 0 0 0 0 0 0 0 0 0 -0 -0 -0 -0 -0 -0 0 0 0 0 0 0 0 0 0 0 0 0 0 0 0 0 0 0 0 -0 -0 -0 0 0 -0 -0 -0 -0 0
0 0 0 0 0 0 0 0 0 0 0 0 0 0 0 -0 -0 0 0 0 0 0 0 0 0 0 0 0 0 0 0 0 0 0 0 0 0 0 0 0 0 -0 0 0 0 -0 -0 -0 0
0 0 0 0 0 0 0 0 0 0 0 0 0 0 0 0 0 0 0 0 0 0 0 0 0 0 0 0 0 0 0 0 0 0 0 0 0 0 0 0 0 0 0 0 0 0 -0 0 0
0 0 0 0 0 0 0 0 0 0 0 0 0 0 0 0 0 0 -0 0 0 0 0 0 0 0 1 1 0 0 0 0 0 0 0 0 0 0 0 0 0 0 0 0 0 0 0 0 0
0 0 0 0 0 0 0 0 0 0 0 0 0 0 0 0 0 -0 -0 -0 0 0 0 0 0 1 1 1 1 1 0 0 0 0 0 0 0 0 0 0 0 0 0 0 0 0 0 0 0
0 0 0 0 0 0 0 0 0 0 0 0 0 0 0 0 -0 0 0 -0 -0 0 0 0 0 0 0 1 1 1 1 0 0 0 0 0 0 0 0 0 0 0 0 0 0 0 0 0 0
0 0 0 0 0 0 0 0 0 0 0 0 0 0 0 0 0 0 0 0 0 0 0 0 0 0 0 0 1 1 0 0 0 0 0 0 0 0 0 0 0 0 0 0 0 0 0 0 0
0 0 0 0 0 0 0 0 0 0 0 0 0 0 0 0 0 0 0 0 0 0 0 0 0 0 0 1 1 1 0 0 0 0 0 0 0 0 0 0 0 0 0 0 0 0 0 0 0
0 0 0 0 0 0 0 0 0 0 0 0 0 0 0 0 0 0 0 0 0 0 0 1 0 1 1 1 1 1 0 0 0 0 0 0 0 0 0 0 0 0 0 0 0 0 0 0 0
0 0 0 -0 0 0 0 0 0 0 0 0 0 1 1 1 1 1 1 1 1 0 0 1 1 1 1 1 1 1 1 1 0 1 0 0 0 0 0 0 0 0 -0 0 0 0 0 0 0
0 0 0 0 -0 0 -0 0 0 0 0 0 0 0 0 1 1 0 1 1 1 1 1 0 1 1 1 1 1 2 2 1 1 1 1 1 0 0 1 1 0 0 -0 -0 0 0 0 0 0
0 0 0 0 0 0 0 0 0 0 0 0 0 0 0 0 0 0 0 0 1 1 1 2 1 1 1 1 1 1 1 1 2 2 1 2 1 0 0 0 0 0 0 -0 0 0 0 0 0
0 0 0 0 0 0 0 0 0 0 0 0 0 0 0 0 0 0 0 0 0 0 0 1 1 2 3 2 2 2 2 2 3 4 3 2 1 1 1 1 0 0 0 0 0 0 0 0 0
0 0 0 0 0 0 0 0 0 0 0 0 0 0 0 0 0 0 0 0 0 0 0 0 0 0 0 1 3 3 2 2 3 3 2 2 2 1 1 1 1 0 0 0 0 0 0 0 -0
0 0 0 0 0 0 0 0 0 0 0 0 0 0 0 0 0 0 0 0 0 0 0 0 0 0 0 0 0 0 0 0 0 1 1 0 0 1 0 0 1 1 0 0 0 0 0 1 0
0 0 0 0 0 0 0 0 0 0 0 0 0 0 0 0 0 0 0 0 0 0 0 0 0 0 0 0 0 0 0 0 0 0 0 0 0 0 0 0 0 1 1 1 0 1 1 1 1
0 0 0 0 0 0 0 0 0 0 0 0 0 0 0 0 0 0 0 0 0 0 0 0 0 0 0 0 0 0 0 0 0 0 0 0 0 0 0 0 0 0 0 1 1 1 1 1 1
0 0 0 0 0 0 0 0 0 0 0 0 0 0 0 0 0 0 0 0 0 0 0 0 0 0 0 0 0 0 0 0 0 0 0 0 0 0 0 0 0 0 0 1 1 1 1 1 2
0 0 0 0 0 0 0 0 0 0 0 0 0 0 0 0 0 0 0 0 0 0 0 0 0 0 0 0 0 0 0 0 0 0 0 0 0 0 0 0 0 0 0 0 1 1 1 1 1
0 0 0 0 0 0 0 0 0 0 0 0 0 0 0 0 0 0 0 0 0 0 0 0 0 0 0 0 0 0 0 0 0 0 0 0 0 0 0 0 0 0 0 0 0 0 1 1 1
Wind_Speed_500mb
11 8 9 5 6 4 2 5 6 9 7 2 13 8 9 6 7 1 17 60 64 68 64 59 54 51 48 43 40 39 35 32 29 26 24 23 23 22 20 18 17 16 16 15 15 16 20 22 23
11 5 3 2 7 7 6 3 7 9 14 11 8 8 11 5 11 4 39 68 69 67 66 61 57 53 48 43 40 37 34 31 28 25 22 21 20 19 17 15 12 11 11 14 15 16 18 19 19
7 2 1 2 2 6 1 5 7 17 2 3 0 5 2 3 9 13 33 74 75 67 65 62 57 53 48 43 39 35 32 29 26 23 21 18 16 15 15 14 11 10 10 12 13 16 19 18 17
5 5 10 4 7 3 7 14 15 26 27 24 7 6 3 5 4 20 55 69 74 68 65 61 56 51 47 42 37 34 31 28 25 22 19 16 14 13 13 12 10 7 8 13 14 15 17 19 16
9 6 5 2 4 7 9 17 32 31 18 18 9 7 2 1 13 23 56 63 70 67 64 60 56 51 45 41 37 34 31 27 24 21 19 16 13 13 12 10 8 7 7 11 13 12 13 15 16
6 3 3 8 6 7 9 12 21 18 21 7 8 10 1 10 19 34 52 60 62 61 62 59 55 50 46 41 37 34 31 28 25 22 19 16 13 11 11 8 7 8 8 10 13 12 11 11 14
6 3 4 4 3 6 5 31 18 23 8 11 5 9 3 19 24 35 53 62 65 62 61 59 55 51 47 43 38 35 33 29 25 21 18 16 14 12 10 8 7 9 11 11 13 15 14 12 13
9 5 7 4 1 1 17 36 19 11 8 9 4 2 6 22 30 40 54 58 66 68 63 62 60 54 50 45 41 36 32 29 26 23 21 18 14 11 8 6 7 11 16 16 13 11 11 13 14
8 4 5 4 4 12 24 19 21 12 4 4 3 6 6 8 37 39 50 52 60 69 68 64 62 59 54 49 44 39 36 32 28 25 22 18 14 12 10 8 9 14 16 18 16 16 13 7 9
4 2 8 3 3 12 20 11 27 14 8 8 3 9 9 14 38 44 56 56 62 74 72 69 64 60 56 51 48 44 41 38 33 29 25 21 17 15 12 10 10 13 14 15 13 12 11 11 11
6 3 5 4 11 12 14 18 16 18 7 4 7 6 5 20 36 38 47 54 62 69 69 68 65 63 60 56 52 49 47 41 37 32 28 24 20 18 16 16 14 13 12 10 10 6 6 9 6
5 4 7 6 4 4 14 17 23 7 11 16 15 13 10 20 35 43 39 46 57 65 65 68 72 70 65 61 55 51 48 44 40 35 30 26 22 20 21 20 19 16 14 11 7 4 1 4 5
5 3 6 10 19 12 12 11 9 21 23 21 22 19 16 18 31 43 43 41 49 60 67 68 70 67 64 61 59 56 51 45 40 36 32 28 25 22 23 25 24 21 18 14 11 8 5 4 6
1 6 12 8 10 8 7 5 5 5 31 29 24 22 23 27 30 39 45 46 51 55 66 66 67 68 65 64 62 61 55 51 45 41 37 33 29 27 25 27 28 24 22 21 19 16 15 13 15
3 8 4 6 12 4 9 8 9 20 25 31 31 28 31 32 36 41 44 43 45 52 62 68 61 59 32 65 61 63 55 50 48 42 37 35 32 30 29 29 32 30 29 25 22 20 21 21 17
5 4 5 6 16 7 10 10 26 21 34 37 34 31 25 35 38 43 48 46 45 53 60 65 64 60 52 62 72 65 55 59 50 46 39 35 34 32 34 34 33 36 36 32 27 22 19 21 17
12 5 9 11 12 10 12 16 29 34 29 32 37 37 36 34 43 45 50 50 50 53 60 64 67 70 70 63 64 62 55 53 47 48 50 31 36 33 32 31 29 34 38 35 31 26 22 19 21
5 4 5 9 6 13 7 15 25 25 18 23 32 39 33 26 30 38 53 49 55 57 60 66 68 71 63 61 56 53 56 58 52 51 38 31 37 34 31 28 29 30 38 37 33 28 24 27 24
4 3 7 12 2 7 16 16 22 13 22 29 36 40 30 17 16 28 45 57 54 52 60 66 70 70 63 56 58 57 57 55 50 53 39 41 39 34 31 28 32 42 42 39 37 31 30 29 29
3 3 8 17 6 10 20 20 17 5 18 26 36 40 38 26 16 20 23 37 52 54 49 55 62 64 59 53 50 50 48 46 46 43 40 41 46 37 40 43 48 43 53 50 39 34 35 33 31
10 9 13 15 20 15 18 28 8 6 12 28 37 38 37 29 22 19 13 16 29 33 35 42 48 51 48 48 43 46 46 39 45 45 43 38 33 34 43 52 68 56 56 48 47 40 38 30 31
5 14 12 20 21 17 11 13 9 11 3 31 41 44 37 28 25 23 22 13 3 15 24 27 30 31 36 40 37 36 35 37 39 37 39 26 23 29 37 37 35 64 62 59 48 48 47 36 32
6 15 17 21 23 16 12 10 2 11 16 35 40 39 41 27 19 23 27 25 22 15 13 15 23 30 34 34 29 29 33 33 34 31 30 25 26 26 29 30 26 26 11 71 68 45 48 31 27
19 12 11 2 6 9 8 9 3 11 18 29 36 39 38 33 22 30 35 31 31 33 35 28 26 33 36 36 34 33 31 31 33 33 29 21 25 25 20 19 18 18 15 23 30 58 56 50 53
22 11 6 3 5 5 5 13 8 10 13 18 22 30 39 30 23 34 45 49 53 55 53 49 45 50 43 38 33 26 22 17 15 16 14 11 8 6 9 10 16 16 11 11 12 29 47 57 54
6 5 4 7 6 10 20 12 1 4 8 12 12 16 27 37 31 32 51 54 52 54 55 54 53 49 43 40 38 36 28 26 23 17 13 12 8 5 6 9 11 13 13 12 25 24 22 26 32
4 1 3 5 1 8 5 5 8 0 7 14 15 18 31 41 33 26 48 56 56 57 61 59 58 56 54 49 43 39 32 27 24 22 17 15 16 13 11 11 10 10 12 19 27 31 31 29 32
2 6 3 1 6 9 6 9 13 7 10 8 2 9 21 37 28 28 31 45 40 37 38 38 40 46 50 49 46 41 35 29 26 23 23 21 20 19 20 21 20 18 15 14 16 20 26 35 38
5 6 6 2 4 5 8 7 3 7 12 11 8 10 18 26 20 25 24 37 33 24 15 24 26 32 34 36 36 37 39 39 35 28 24 22 22 21 21 23 24 24 23 19 16 16 17 23 32
1 4 4 5 7 7 8 14 7 10 11 13 18 20 20 16 9 3 9 28 50 30 19 28 31 32 36 40 47 47 44 44 42 37 35 27 26 23 21 22 24 25 25 22 17 13 16 23 24
Wind_Direction_500mb
283 315 303 360 262 300 342 46 300 298 275 90 128 178 243 288 236 49 160 170 171 169 166 164 166 167 169 165 159 152 148 145 142 138 137 140 139 137 136 139 141 143 144 140 134 124 115 121 129
274 298 284 85 264 264 80 259 8 308 283 294 167 179 236 269 245 250 154 167 172 170 168 165 167 168 168 166 161 155 150 147 143 139 138 140 141 141 141 140 142 150 157 157 155 148 140 135 135
265 168 198 71 148 246 40 196 301 324 321 272 103 273 283 254 249 171 167 166 172 173 169 169 169 169 168 167 163 157 152 148 146 141 136 135 139 142 143 145 150 155 169 172 172 173 164 154 150
168 99 58 252 239 234 263 325 273 302 287 244 221 298 300 275 207 170 163 168 172 174 171 172 172 170 170 168 165 161 158 155 150 143 135 130 130 137 140 142 148 166 176 178 174 176 174 170 165
130 85 111 152 253 274 262 307 326 310 291 274 238 240 293 344 158 157 163 170 175 176 175 175 175 171 171 171 170 168 165 160 156 150 142 133 130 132 133 135 142 159 175 172 176 172 171 173 174
90 86 155 219 254 270 289 342 316 305 295 273 197 220 161 159 161 160 168 171 178 180 178 179 178 176 175 175 176 175 172 168 166 161 153 142 133 130 130 130 131 138 156 164 172 173 166 169 176
118 119 129 160 295 285 333 335 321 328 310 233 333 191 148 176 179 170 173 175 181 185 185 183 182 181 181 181 181 184 181 177 175 169 164 157 148 143 137 133 124 123 131 143 163 178 179 177 182
110 89 144 216 154 73 342 337 316 328 61 133 186 14 48 198 193 179 182 183 186 187 192 189 187 186 186 188 190 191 190 187 184 180 176 175 165 149 142 131 125 121 120 121 133 147 175 193 197
107 113 167 165 189 348 334 342 351 347 122 133 129 73 343 196 200 186 184 190 194 194 194 197 193 191 192 193 195 197 198 197 194 193 191 186 176 166 164 159 146 138 130 123 118 114 118 146 191
104 139 188 194 229 321 317 326 333 342 67 176 30 347 300 199 195 191 194 197 198 200 199 199 200 198 197 198 200 203 204 204 201 201 199 195 190 187 180 175 161 154 148 142 131 120 123 117 120
143 162 182 201 252 282 304 321 327 330 37 354 16 344 258 202 197 203 203 206 205 202 205 205 204 206 204 204 205 206 210 210 209 208 205 203 200 192 184 179 173 174 175 172 159 140 128 146 145
166 166 196 292 162 290 293 318 320 316 284 309 311 300 240 220 219 215 210 213 212 209 209 209 207 210 208 211 211 214 215 215 215 214 214 214 210 200 192 190 186 183 187 198 188 175 101 86 73
182 163 210 275 291 266 270 284 299 284 333 304 290 287 248 238 239 230 224 226 221 214 213 213 214 214 216 218 217 218 220 221 222 221 222 222 222 217 212 207 203 199 198 205 216 221 235 297 316
231 275 291 306 300 290 262 220 272 322 334 325 314 282 264 252 252 235 231 228 228 221 216 218 218 217 220 223 223 223 222 223 221 223 224 224 225 225 224 221 219 218 220 220 229 243 250 260 283
15 300 344 67 354 345 298 252 216 315 337 322 318 289 263 254 243 241 239 232 230 222 219 223 222 231 233 232 230 232 227 229 231 229 229 233 232 233 235 232 228 229 234 239 242 248 257 258 272
32 73 0 11 350 41 341 303 301 330 335 321 316 303 267 245 247 247 243 237 234 225 221 225 223 218 197 233 232 232 234 234 227 230 229 241 241 241 243 240 235 233 239 241 245 254 266 261 256
28 50 1 331 0 353 17 320 318 327 336 322 323 316 281 251 241 241 241 244 233 232 227 228 224 222 224 229 231 234 237 242 238 238 236 237 249 239 243 241 234 230 234 240 241 250 258 258 246
38 16 321 304 354 320 328 298 306 339 354 340 335 330 307 276 252 249 237 242 241 234 233 233 234 231 231 233 229 233 234 232 235 242 242 239 243 236 237 243 251 241 233 238 244 245 246 252 246
151 233 304 307 303 283 317 298 310 344 20 6 360 351 338 335 279 254 238 240 240 242 235 235 234 235 232 226 230 233 232 235 236 242 236 229 232 230 231 248 265 261 249 242 244 244 244 253 246
103 24 6 291 309 294 317 299 289 23 35 22 11 8 1 360 359 304 262 239 240 248 247 240 238 239 236 230 234 233 235 231 231 234 240 243 236 241 244 243 253 257 263 256 250 255 254 249 254
94 34 344 308 316 269 301 285 215 119 58 31 27 18 16 17 22 5 351 261 247 249 247 241 239 236 232 229 232 240 232 236 227 228 240 246 235 244 259 261 252 244 289 275 261 251 252 249 253
116 356 324 317 324 314 4 289 255 333 334 23 17 16 13 16 25 37 43 56 203 246 250 245 237 227 220 222 226 225 233 242 236 239 246 219 257 256 260 274 270 232 271 285 279 257 242 246 245
2 320 308 296 287 297 261 262 351 333 337 6 3 7 7 15 37 48 62 74 98 130 153 190 203 216 226 220 219 223 222 222 219 215 230 240 249 253 252 261 254 258 191 225 266 269 246 244 248
328 301 293 244 266 256 77 353 283 18 339 340 355 1 6 8 53 80 81 88 92 106 113 139 169 180 192 201 196 195 201 196 206 215 223 220 243 250 248 249 245 241 236 224 236 213 220 229 250
8 348 324 234 203 291 46 308 0 357 357 350 349 2 5 18 22 96 85 87 84 85 87 92 101 100 110 143 129 139 143 151 156 139 140 144 160 231 280 297 270 268 249 259 250 224 233 241 240
27 352 318 283 264 304 325 270 29 357 343 359 12 34 34 22 10 81 92 91 86 84 83 83 83 80 73 73 72 72 80 80 77 76 82 75 70 33 335 310 301 304 287 265 253 238 233 247 254
53 103 35 275 251 265 256 258 184 200 337 356 7 28 55 31 18 22 93 92 87 84 82 75 71 72 73 65 60 54 45 40 36 35 37 38 32 17 353 334 317 319 318 292 278 265 253 251 252
10 95 201 100 279 272 241 269 276 270 291 295 298 81 86 66 26 43 58 87 85 77 77 70 56 57 55 54 45 38 30 19 7 353 341 345 345 345 342 338 336 337 327 321 309 275 260 250 249
139 143 75 91 256 269 295 257 265 308 273 243 196 154 129 102 89 24 45 43 22 12 13 67 52 37 32 35 34 21 22 10 357 348 340 338 333 327 328 329 331 332 330 324 314 303 284 273 264
320 158 180 229 211 238 282 274 304 257 286 223 198 175 163 138 162 263 316 342 354 356 9 61 53 42 33 21 15 2 14 349 343 342 331 334 328 325 323 320 322 325 331 336 327 305 287 274 278
Wind_Speed_850mb
11 8 9 5 6 4 2 5 6 9 7 2 13 8 9 6 7 1 17 60 64 68 64 59 54 51 48 43 40 39 35 32 29 26 24 23 23 22 20 18 17 16 16 15 15 16 20 22 23
11 5 3 2 7 7 6 3 7 9 14 11 8 8 11 5 11 4 39 68 69 67 66 61 57 53 48 43 40 37 34 31 28 25 22 21 20 19 17 15 12 11 11 14 15 16 18 19 19
7 2 1 2 2 6 1 5 7 17 2 3 0 5 2 3 9 13 33 74 75 67 65 62 57 53 48 43 39 35 32 29 26 23 21 18 16 15 15 14 11 10 10 12 13 16 19 18 17
5 5 10 4 7 3 7 14 15 26 27 24 7 6 3 5 4 20 55 69 74 68 65 61 56 51 47 42 37 34 31 28 25 22 19 16 14 13 13 12 10 7 8 13 14 15 17 19 16
9 6 5 2 4 7 9 17 32 31 18 18 9 7 2 1 13 23 56 63 70 67 64 60 56 51 45 41 37 34 31 27 24 21 19 16 13 13 12 10 8 7 7 11 13 12 13 15 16
6 3 3 8 6 7 9 12 21 18 21 7 8 10 1 10 19 34 52 60 62 61 62 59 55 50 46 41 37 34 31 28 25 22 19 16 13 11 11 8 7 8 8 10 13 12 11 11 14
6 3 4 4 3 6 5 31 18 23 8 11 5 9 3 19 24 35 53 62 65 62 61 59 55 51 47 43 38 35 33 29 25 21 18 16 14 12 10 8 7 9 11 11 13 15 14 12 13
9 5 7 4 1 1 17 36 19 11 8 9 4 2 6 22 30 40 54 58 66 68 63 62 60 54 50 45 41 36 32 29 26 23 21 18 14 11 8 6 7 11 16 16 13 11 11 13 14
8 4 5 4 4 12 24 19 21 12 4 4 3 6 6 8 37 39 50 52 60 69 68 64 62 59 54 49 44 39 36 32 28 25 22 18 14 12 10 8 9 14 16 18 16 16 13 7 9
4 2 8 3 3 12 20 11 27 14 8 8 3 9 9 14 38 44 56 56 62 74 72 69 64 60 56 51 48 44 41 38 33 29 25 21 17 15 12 10 10 13 14 15 13 12 11 11 11
6 3 5 4 11 12 14 18 16 18 7 4 7 6 5 20 36 38 47 54 62 69 69 68 65 63 60 56 52 49 47 41 37 32 28 24 20 18 16 16 14 13 12 10 10 6 6 9 6
5 4 7 6 4 4 14 17 23 7 11 16 15 13 10 20 35 43 39 46 57 65 65 68 72 70 65 61 55 51 48 44 40 35 30 26 22 20 21 20 19 16 14 11 7 4 1 4 5
5 3 6 10 19 12 12 11 9 21 23 21 22 19 16 18 31 43 43 41 49 60 67 68 70 67 64 61 59 56 51 45 40 36 32 28 25 22 23 25 24 21 18 14 11 8 5 4 6
1 6 12 8 10 8 7 5 5 5 31 29 24 22 23 27 30 39 45 46 51 55 66 66 67 68 65 64 62 61 55 51 45 41 37 33 29 27 25 27 28 24 22 21 19 16 15 13 15
3 8 4 6 12 4 9 8 9 20 25 31 31 28 31 32 36 41 44 43 45 52 62 68 61 59 32 65 61 63 55 50 48 42 37 35 32 30 29 29 32 30 29 25 22 20 21 21 17
5 4 5 6 16 7 10 10 26 21 34 37 34 31 25 35 38 43 48 46 45 53 60 65 64 60 52 62 72 65 55 59 50 46 39 35 34 32 34 34 33 36 36 32 27 22 19 21 17
12 5 9 11 12 10 12 16 29 34 29 32 37 37 36 34 43 45 50 50 50 53 60 64 67 70 70 63 64 62 55 53 47 48 50 31 36 33 32 31 29 34 38 35 31 26 22 19 21
5 4 5 9 6 13 7 15 25 25 18 23 32 39 33 26 30 38 53 49 55 57 60 66 68 71 63 61 56 53 56 58 52 51 38 31 37 34 31 28 29 30 38 37 33 28 24 27 24
4 3 7 12 2 7 16 16 22 13 22 29 36 40 30 17 16 28 45 57 54 52 60 66 70 70 63 56 58 57 57 55 50 53 39 41 39 34 31 28 32 42 42 39 37 31 30 29 29
3 3 8 17 6 10 20 20 17 5 18 26 36 40 38 26 16 20 23 37 52 54 49 55 62 64 59 53 50 50 48 46 46 43 40 41 46 37 40 43 48 43 53 50 39 34 35 33 31
10 9 13 15 20 15 18 28 8 6 12 28 37 38 37 29 22 19 13 16 29 33 35 42 48 51 48 48 43 46 46 39 45 45 43 38 33 34 43 52 68 56 56 48 47 40 38 30 31
5 14 12 20 21 17 11 13 9 11 3 31 41 44 37 28 25 23 22 13 3 15 24 27 30 31 36 40 37 36 35 37 39 37 39 26 23 29 37 37 35 64 62 59 48 48 47 36 32
6 15 17 21 23 16 12 10 2 11 16 35 40 39 41 27 19 23 27 25 22 15 13 15 23 30 34 34 29 29 33 33 34 31 30 25 26 26 29 30 26 26 11 71 68 45 48 31 27
19 12 11 2 6 9 8 9 3 11 18 29 36 39 38 33 22 30 35 31 31 33 35 28 26 33 36 36 34 33 31 31 33 33 29 21 25 25 20 19 18 18 15 23 30 58 56 50 53
22 11 6 3 5 5 5 13 8 10 13 18 22 30 39 30 23 34 45 49 53 55 53 49 45 50 43 38 33 26 22 17 15 16 14 11 8 6 9 10 16 16 11 11 12 29 47 57 54
6 5 4 7 6 10 20 12 1 4 8 12 12 16 27 37 31 32 51 54 52 54 55 54 53 49 43 40 38 36 28 26 23 17 13 12 8 5 6 9 11 13 13 12 25 24 22 26 32
4 1 3 5 1 8 5 5 8 0 7 14 15 18 31 41 33 26 48 56 56 57 61 59 58 56 54 49 43 39 32 27 24 22 17 15 16 13 11 11 10 10 12 19 27 31 31 29 32
2 6 3 1 6 9 6 9 13 7 10 8 2 9 21 37 28 28 31 45 40 37 38 38 40 46 50 49 46 41 35 29 26 23 23 21 20 19 20 21 20 18 15 14 16 20 26 35 38
5 6 6 2 4 5 8 7 3 7 12 11 8 10 18 26 20 25 24 37 33 24 15 24 26 32 34 36 36 37 39 39 35 28 24 22 22 21 21 23 24 24 23 19 16 16 17 23 32
1 4 4 5 7 7 8 14 7 10 11 13 18 20 20 16 9 3 9 28 50 30 19 28 31 32 36 40 47 47 44 44 42 37 35 27 26 23 21 22 24 25 25 22 17 13 16 23 24
Wind_Direction_850mb
283 315 303 360 262 300 342 46 300 298 275 90 128 178 243 288 236 49 160 170 171 169 166 164 166 167 169 165 159 152 148 145 142 138 137 140 139 137 136 139 141 143 144 140 134 124 115 121 129
274 298 284 85 264 264 80 259 8 308 283 294 167 179 236 269 245 250 154 167 172 170 168 165 167 168 168 166 161 155 150 147 143 139 138 140 141 141 141 140 142 150 157 157 155 148 140 135 135
265 168 198 71 148 246 40 196 301 324 321 272 103 273 283 254 249 171 167 166 172 173 169 169 169 169 168 167 163 157 152 148 146 141 136 135 139 142 143 145 150 155 169 172 172 173 164 154 150
168 99 58 252 239 234 263 325 273 302 287 244 221 298 300 275 207 170 163 168 172 174 171 172 172 170 170 168 165 161 158 155 150 143 135 130 130 137 140 142 148 166 176 178 174 176 174 170 165
130 85 111 152 253 274 262 307 326 310 291 274 238 240 293 344 158 157 163 170 175 176 175 175 175 171 171 171 170 168 165 160 156 150 142 133 130 132 133 135 142 159 175 172 176 172 171 173 174
90 86 155 219 254 270 289 342 316 305 295 273 197 220 161 159 161 160 168 171 178 180 178 179 178 176 175 175 176 175 172 168 166 161 153 142 133 130 130 130 131 138 156 164 172 173 166 169 176
118 119 129 160 295 285 333 335 321 328 310 233 333 191 148 176 179 170 173 175 181 185 185 183 182 181 181 181 181 184 181 177 175 169 164 157 148 143 137 133 124 123 131 143 163 178 179 177 182
110 89 144 216 154 73 342 337 316 328 61 133 186 14 48 198 193 179 182 183 186 187 192 189 187 186 186 188 190 191 190 187 184 180 176 175 165 149 142 131 125 121 120 121 133 147 175 193 197
107 113 167 165 189 348 334 342 351 347 122 133 129 73 343 196 200 186 184 190 194 194 194 197 193 191 192 193 195 197 198 197 194 193 191 186 176 166 164 159 146 138 130 123 118 114 118 146 191
104 139 188 194 229 321 317 326 333 342 67 176 30 347 300 199 195 191 194 197 198 200 199 199 200 198 197 198 200 203 204 204 201 201 199 195 190 187 180 175 161 154 148 142 131 120 123 117 120
143 162 182 201 252 282 304 321 327 330 37 354 16 344 258 202 197 203 203 206 205 202 205 205 204 206 204 204 205 206 210 210 209 208 205 203 200 192 184 179 173 174 175 172 159 140 128 146 145
166 166 196 292 162 290 293 318 320 316 284 309 311 300 240 220 219 215 210 213 212 209 209 209 207 210 208 211 211 214 215 215 215 214 214 214 210 200 192 190 186 183 187 198 188 175 101 86 73
182 163 210 275 291 266 270 284 299 284 333 304 290 287 248 238 239 230 224 226 221 214 213 213 214 214 216 218 217 218 220 221 222 221 222 222 222 217 212 207 203 199 198 205 216 221 235 297 316
231 275 291 306 300 290 262 220 272 322 334 325 314 282 264 252 252 235 231 228 228 221 216 218 218 217 220 223 223 223 222 223 221 223 224 224 225 225 224 221 219 218 220 220 229 243 250 260 283
15 300 344 67 354 345 298 252 216 315 337 322 318 289 263 254 243 241 239 232 230 222 219 223 222 231 233 232 230 232 227 229 231 229 229 233 232 233 235 232 228 229 234 239 242 248 257 258 272
32 73 0 11 350 41 341 303 301 330 335 321 316 303 267 245 247 247 243 237 234 225 221 225 223 218 197 233 232 232 234 234 227 230 229 241 241 241 243 240 235 233 239 241 245 254 266 261 256
28 50 1 331 0 353 17 320 318 327 336 322 323 316 281 251 241 241 241 244 233 232 227 228 224 222 224 229 231 234 237 242 238 238 236 237 249 239 243 241 234 230 234 240 241 250 258 258 246
38 16 321 304 354 320 328 298 306 339 354 340 335 330 307 276 252 249 237 242 241 234 233 233 234 231 231 233 229 233 234 232 235 242 242 239 243 236 237 243 251 241 233 238 244 245 246 252 246
151 233 304 307 303 283 317 298 310 344 20 6 360 351 338 335 279 254 238 240 240 242 235 235 234 235 232 226 230 233 232 235 236 242 236 229 232 230 231 248 265 261 249 242 244 244 244 253 246
103 24 6 291 309 294 317 299 289 23 35 22 11 8 1 360 359 304 262 239 240 248 247 240 238 239 236 230 234 233 235 231 231 234 240 243 236 241 244 243 253 257 263 256 250 255 254 249 254
94 34 344 308 316 269 301 285 215 119 58 31 27 18 16 17 22 5 351 261 247 249 247 241 239 236 232 229 232 240 232 236 227 228 240 246 235 244 259 261 252 244 289 275 261 251 252 249 253
116 356 324 317 324 314 4 289 255 333 334 23 17 16 13 16 25 37 43 56 203 246 250 245 237 227 220 222 226 225 233 242 236 239 246 219 257 256 260 274 270 232 271 285 279 257 242 246 245
2 320 308 296 287 297 261 262 351 333 337 6 3 7 7 15 37 48 62 74 98 130 153 190 203 216 226 220 219 223 222 222 219 215 230 240 249 253 252 261 254 258 191 225 266 269 246 244 248
328 301 293 244 266 256 77 353 283 18 339 340 355 1 6 8 53 80 81 88 92 106 113 139 169 180 192 201 196 195 201 196 206 215 223 220 243 250 248 249 245 241 236 224 236 213 220 229 250
8 348 324 234 203 291 46 308 0 357 357 350 349 2 5 18 22 96 85 87 84 85 87 92 101 100 110 143 129 139 143 151 156 139 140 144 160 231 280 297 270 268 249 259 250 224 233 241 240
27 352 318 283 264 304 325 270 29 357 343 359 12 34 34 22 10 81 92 91 86 84 83 83 83 80 73 73 72 72 80 80 77 76 82 75 70 33 335 310 301 304 287 265 253 238 233 247 254
53 103 35 275 251 265 256 258 184 200 337 356 7 28 55 31 18 22 93 92 87 84 82 75 71 72 73 65 60 54 45 40 36 35 37 38 32 17 353 334 317 319 318 292 278 265 253 251 252
10 95 201 100 279 272 241 269 276 270 291 295 298 81 86 66 26 43 58 87 85 77 77 70 56 57 55 54 45 38 30 19 7 353 341 345 345 345 342 338 336 337 327 321 309 275 260 250 249
139 143 75 91 256 269 295 257 265 308 273 243 196 154 129 102 89 24 45 43 22 12 13 67 52 37 32 35 34 21 22 10 357 348 340 338 333 327 328 329 331 332 330 324 314 303 284 273 264
320 158 180 229 211 238 282 274 304 257 286 223 198 175 163 138 162 263 316 342 354 356 9 61 53 42 33 21 15 2 14 349 343 342 331 334 328 325 323 320 322 325 331 336 327 305 287 274 278